Temp
86 87 89 88 90 71 80 82 74 79 87 82 73 71 73 72 67 64 72 71 76 83 83 84 84 83 82 83 85 85 84 85 85 84 84 85 86 86 87 87 88 88 89 90 91 91 91 92 90 89 90 90 88 88 90 89 89 90 90 88 89 89 89
84 87 89 88 88 89 83 74 81 86 88 85 75 63 64 64 60 61 69 67 72 70 64 78 79 80 81 83 84 85 82 85 85 84 83 82 83 84 85 86 87 88 88 89 90 91 90 90 91 90 89 91 90 90 90 90 90 89 92 91 91 91 89
83 87 88 84 88 89 84 80 90 78 66 66 73 69 57 57 57 61 69 70 71 71 70 76 76 77 80 81 83 83 84 84 84 85 83 83 84 84 83 84 85 86 88 87 88 89 90 89 90 91 91 92 91 92 93 94 92 94 94 96 94 92 92
84 85 85 73 79 87 88 90 84 88 81 71 66 69 70 68 60 60 61 67 64 73 76 79 77 78 80 81 82 82 83 83 83 84 84 82 82 82 82 84 84 86 87 88 87 88 88 88 89 91 91 93 92 91 93 94 94 94 94 95 94 93 94
83 75 81 80 81 76 79 80 79 80 79 82 80 76 70 66 61 62 60 60 67 73 81 79 78 79 81 81 79 80 81 83 84 83 84 82 81 81 81 82 84 85 86 88 87 87 87 88 90 92 91 93 93 92 90 91 91 93 95 96 95 93 94
75 79 85 82 83 85 83 82 78 80 74 70 65 62 77 73 67 57 61 60 70 75 82 82 82 83 82 81 81 80 81 81 80 80 81 82 81 81 82 83 83 84 85 86 86 86 88 90 89 89 92 92 92 88 87 87 95 93 95 94 92 92 92
79 80 83 85 85 85 84 85 82 85 83 79 71 58 65 71 72 73 70 63 66 80 83 82 83 82 83 83 83 82 81 80 79 80 81 81 81 80 81 82 82 82 83 84 85 84 86 87 89 90 91 92 91 89 88 93 91 91 94 94 93 91 91
81 83 85 84 84 84 82 84 85 83 79 81 76 74 75 70 70 66 67 61 68 77 80 82 82 80 83 83 84 81 82 81 79 78 79 79 79 81 81 82 81 82 82 83 83 83 84 84 86 87 88 89 89 89 88 89 89 90 90 91 92 91 91
72 76 79 80 84 83 81 80 82 84 83 82 80 78 77 68 71 70 66 59 68 74 80 80 81 80 81 81 83 82 80 80 80 79 79 79 79 80 81 80 80 81 82 82 81 82 82 83 85 86 88 87 88 88 89 89 88 88 90 91 91 90 90
56 56 59 64 69 75 82 82 78 80 80 77 75 69 70 62 69 69 66 67 74 76 79 79 80 79 79 81 82 81 80 79 79 80 80 79 79 79 79 79 80 79 80 80 80 80 81 82 83 83 83 86 87 86 87 88 87 87 88 90 90 88 89
68 69 71 78 81 80 75 77 78 79 81 82 78 76 70 66 69 67 70 70 72 74 76 77 78 79 79 79 80 79 79 79 80 78 78 79 78 77 77 78 79 80 79 79 79 80 80 81 81 82 82 83 84 84 85 87 88 88 87 87 87 87 87
78 79 77 81 80 77 79 78 76 79 79 79 76 72 69 74 70 62 73 73 71 75 78 78 79 81 80 81 81 80 80 80 80 79 77 76 78 78 78 78 78 78 78 78 78 78 79 79 80 81 82 82 82 83 83 85 87 89 90 88 86 86 87
79 79 79 80 80 80 79 79 79 77 78 77 73 73 76 74 69 67 70 72 71 76 79 81 81 82 81 82 81 81 80 79 77 77 77 77 77 77 77 77 77 77 77 77 77 77 77 78 78 79 80 81 82 83 83 83 85 85 86 86 87 88 86
78 78 78 79 79 77 78 79 79 79 79 77 77 77 78 76 72 74 75 73 74 80 80 82 81 82 82 80 80 79 78 77 76 76 76 76 76 76 77 77 77 77 76 76 76 76 76 76 76 77 78 79 80 81 82 83 83 84 85 84 85 85 85
75 78 78 78 78 77 75 78 80 80 79 79 79 79 79 76 76 76 75 73 72 80 82 80 78 80 81 81 79 78 77 76 77 77 76 76 76 76 77 77 77 77 77 77 77 77 76 76 76 77 77 78 79 80 80 81 81 83 85 83 84 85 84
71 76 76 77 78 78 76 76 77 77 77 74 77 74 79 75 71 74 74 70 72 78 79 79 78 78 79 79 78 77 76 77 76 76 77 76 76 76 77 77 77 77 76 76 77 77 76 76 77 77 77 77 78 78 79 80 81 82 82 83 83 84 85
69 76 77 76 75 74 70 72 77 78 79 79 81 81 79 78 79 73 69 71 80 78 79 78 77 79 80 80 80 79 77 77 77 76 76 76 76 76 77 76 76 76 76 76 76 76 76 77 76 77 76 76 76 77 77 78 79 80 81 81 81 82 83
68 73 75 75 68 59 63 78 83 82 79 78 75 76 79 80 79 77 80 78 77 79 79 79 77 78 78 80 79 80 80 78 76 76 76 76 77 77 78 78 77 76 77 77 77 77 76 76 76 76 75 75 76 76 76 76 77 77 78 80 80 81 82
67 71 71 64 57 61 74 81 81 81 82 81 79 79 81 80 79 78 77 77 77 78 81 80 79 79 79 79 79 77 77 77 77 76 76 76 76 76 77 78 77 76 75 75 75 75 74 74 75 75 75 76 75 75 75 76 77 77 76 76 78 80 81
73 68 65 55 58 73 78 78 80 80 81 81 78 75 80 81 81 78 76 79 78 77 77 79 79 78 77 77 77 77 76 75 76 76 76 75 76 76 78 76 75 75 74 74 73 73 73 74 74 74 74 75 74 74 75 75 76 77 76 76 77 79 80
63 66 65 65 72 71 74 72 74 78 75 76 74 69 75 82 82 80 78 77 77 77 77 77 77 76 77 76 77 78 77 75 76 76 75 76 76 77 77 76 76 76 76 74 74 73 73 73 74 74 74 74 74 74 74 75 75 75 76 76 78 79 79
71 65 62 64 62 57 66 76 84 87 87 86 84 78 74 82 84 83 80 76 76 76 77 76 76 75 75 73 78 76 76 76 75 76 76 77 77 77 77 77 77 77 75 74 74 73 73 73 74 74 74 74 73 73 73 74 74 74 75 76 78 79 79
68 65 61 60 57 63 75 78 82 85 86 85 83 75 70 80 83 83 82 79 78 78 76 75 75 74 71 75 78 76 76 75 75 76 76 78 77 77 76 76 75 74 74 73 73 74 73 72 73 74 73 74 73 72 73 73 74 74 74 75 77 78 79
68 65 62 60 66 66 74 78 83 84 86 84 78 62 65 79 84 84 83 79 78 78 78 77 75 75 74 77 76 78 78 78 77 77 76 77 77 77 78 78 76 74 74 73 73 72 72 72 73 73 73 73 72 72 72 74 74 74 75 76 77 78 79
67 62 64 68 69 76 77 79 83 84 84 80 66 57 71 80 84 85 84 82 80 79 76 77 75 79 79 78 80 81 79 78 77 78 78 78 77 77 77 76 74 75 74 73 72 71 72 72 73 73 72 72 71 71 72 72 73 75 76 77 77 77 77
66 67 63 65 70 77 80 81 83 82 75 62 63 75 81 83 83 85 86 84 82 80 78 79 82 81 82 82 83 79 79 80 79 79 80 79 79 78 76 74 75 74 74 73 72 72 73 73 73 73 72 70 70 71 71 72 73 75 76 76 76 76 76
70 68 64 59 52 72 82 77 77 78 70 74 81 80 82 86 86 85 85 84 82 82 80 83 81 81 82 81 80 79 79 79 78 78 78 76 75 74 74 75 76 76 74 73 72 72 73 73 73 73 71 69 70 71 71 72 74 75 75 74 75 75 76
66 62 58 58 72 78 80 79 73 75 80 83 83 83 80 84 86 85 83 84 82 84 83 82 80 81 79 78 78 77 78 78 77 77 76 76 74 74 78 78 76 75 72 73 72 73 74 74 73 72 71 69 69 69 70 72 72 73 73 73 73 74 75
68 65 71 71 74 78 83 83 78 81 84 85 84 87 87 83 84 86 85 82 82 84 84 81 80 79 80 78 78 76 76 77 77 76 76 74 73 75 74 76 74 73 72 71 72 72 74 74 73 72 71 69 69 69 71 71 71 72 73 73 72 72 73
75 78 77 78 79 78 80 86 82 80 83 88 86 87 86 86 85 86 84 84 84 83 83 81 79 80 78 76 76 76 76 76 76 75 74 73 74 77 78 75 73 72 73 73 72 71 71 73 73 72 72 71 68 68 71 72 72 71 71 71 71 70 71
67 59 73 75 75 77 78 80 82 81 80 81 85 84 86 85 85 86 86 84 83 82 81 80 79 78 77 76 75 75 75 75 75 74 73 73 72 72 71 71 72 73 73 73 71 70 70 72 73 75 73 71 70 70 71 71 71 70 70 69 68 67 66
68 67 73 75 79 78 77 80 80 79 81 80 80 82 86 85 85 85 83 84 82 82 81 80 79 77 77 76 73 74 73 74 74 73 72 72 72 72 72 72 71 72 71 69 69 69 69 70 71 72 72 71 71 71 71 71 70 69 67 66 65 64 63
73 75 76 76 76 78 79 78 80 82 81 81 80 82 84 84 82 81 82 83 83 82 82 81 79 76 76 76 75 75 75 73 73 73 73 72 72 72 72 71 71 70 69 70 69 69 69 70 71 71 71 71 70 70 70 69 69 67 66 65 65 64 63
62 65 68 69 66 67 73 77 79 79 78 79 79 80 82 83 81 80 79 80 81 82 81 80 79 76 75 76 75 74 75 74 72 72 72 74 73 72 72 73 72 71 70 69 69 68 69 71 71 71 71 71 71 71 71 71 70 67 66 66 65 63 63
66 69 71 72 70 71 74 76 78 80 81 81 79 79 80 81 82 81 79 77 77 77 78 80 80 77 75 75 76 75 74 74 73 72 73 73 73 72 72 71 70 70 70 69 69 68 68 71 72 72 72 71 71 71 70 70 70 69 68 66 65 64 63
73 75 73 74 71 69 72 76 77 78 80 80 80 80 81 82 81 81 80 80 78 76 77 78 80 78 76 77 77 75 75 74 72 73 74 75 75 74 74 71 70 70 69 69 67 67 69 71 72 73 73 72 71 72 72 72 71 69 68 66 64 63 63
72 75 75 74 73 74 76 76 78 79 78 80 81 81 81 81 81 82 80 79 80 78 76 76 76 78 77 77 78 76 74 73 74 73 71 71 73 73 74 74 72 71 71 69 67 67 69 70 71 72 72 72 72 72 73 73 73 71 69 68 67 66 64
MSLP
1010.87 1010.43 1009.87 1010.43 1009.83 1015.95 1012.55 1012.71 1015.11 1013.07 1010.75 1012.43 1014.87 1015.35 1015.31 1015.27 1017.11 1016.99 1014.91 1015.27 1013.23 1011.75 1011.87 1011.75 1011.75 1012.11 1012.27 1012.03 1011.71 1011.71 1011.95 1011.67 1011.59 1011.91 1011.95 1011.75 1011.47 1011.43 1011.31 1011.35 1011.31 1011.31 1011.15 1011.15 1011.19 1011.39 1011.63 1011.79 1012.19 1012.55 1012.39 1012.55 1013.03 1013.31 1013.43 1013.75 1013.95 1014.11 1014.39 1014.75 1014.99 1015.11 1015.27
1011.07 1010.07 1009.71 1010.07 1010.19 1010.19 1011.95 1014.51 1012.15 1010.87 1010.35 1011.35 1014.31 1018.07 1017.63 1017.79 1018.71 1018.31 1015.99 1016.39 1014.43 1015.39 1017.59 1013.35 1013.35 1013.07 1012.83 1012.27 1011.95 1011.99 1012.27 1011.71 1011.71 1012.03 1012.19 1012.07 1011.91 1011.63 1011.39 1011.27 1011.15 1011.11 1011.15 1011.23 1011.15 1011.07 1011.35 1011.71 1011.91 1012.15 1012.27 1012.15 1012.39 1012.59 1012.95 1013.43 1013.63 1013.99 1013.91 1014.15 1014.43 1014.67 1015.03
1011.23 1010.23 1010.35 1011.43 1010.31 1009.87 1011.55 1012.27 1009.31 1013.39 1017.19 1017.31 1014.67 1015.99 1020.23 1019.87 1019.31 1018.23 1015.43 1015.43 1015.11 1015.07 1015.23 1013.95 1013.95 1013.71 1013.15 1012.75 1012.23 1012.15 1012.27 1012.11 1012.11 1011.87 1012.15 1012.07 1011.79 1011.71 1011.79 1011.71 1011.63 1011.51 1011.35 1011.39 1011.27 1011.23 1011.31 1011.55 1011.47 1011.59 1011.71 1011.83 1012.15 1012.35 1012.43 1012.71 1013.11 1013.15 1013.31 1013.31 1013.63 1013.95 1014.27
1011.19 1010.95 1010.95 1014.39 1012.87 1010.71 1010.15 1009.63 1011.31 1010.31 1012.43 1015.07 1017.03 1015.95 1015.47 1015.87 1018.35 1018.15 1017.79 1016.27 1017.43 1013.99 1013.43 1012.91 1013.27 1012.91 1012.51 1012.67 1012.63 1012.67 1012.51 1012.43 1012.31 1012.15 1012.03 1012.31 1012.35 1012.23 1012.07 1011.83 1011.67 1011.55 1011.35 1011.27 1011.31 1011.31 1011.47 1011.59 1011.67 1011.51 1011.51 1011.47 1011.99 1012.39 1012.59 1012.47 1012.47 1012.63 1012.87 1013.07 1013.27 1013.67 1013.67
1011.51 1013.91 1011.87 1012.19 1011.67 1013.43 1012.95 1012.67 1012.71 1012.71 1012.99 1011.95 1012.79 1013.95 1015.55 1016.71 1017.95 1017.71 1018.39 1018.15 1015.59 1013.83 1012.23 1012.79 1012.87 1012.59 1012.43 1012.47 1013.11 1012.95 1012.79 1012.43 1012.23 1012.43 1012.31 1012.47 1012.47 1012.47 1012.35 1012.11 1011.71 1011.63 1011.43 1011.19 1011.23 1011.31 1011.55 1011.39 1011.35 1011.39 1011.55 1011.59 1011.67 1012.07 1012.83 1012.67 1012.59 1012.63 1012.71 1012.71 1012.91 1013.27 1013.27
1013.75 1011.83 1010.15 1011.03 1010.91 1010.47 1011.07 1011.51 1012.87 1012.15 1014.27 1015.79 1017.39 1018.07 1013.87 1014.71 1016.55 1018.11 1018.23 1018.03 1014.35 1013.59 1011.71 1012.03 1012.07 1011.79 1012.15 1012.47 1012.59 1012.83 1012.71 1012.75 1013.03 1012.95 1012.67 1012.51 1012.63 1012.51 1012.31 1012.11 1011.99 1011.75 1011.59 1011.39 1011.39 1011.51 1011.39 1011.39 1011.47 1011.51 1011.35 1011.51 1011.75 1012.63 1012.95 1013.03 1012.07 1012.27 1012.31 1012.47 1012.79 1012.99 1013.19
1011.87 1011.67 1010.91 1010.35 1010.35 1010.39 1010.63 1010.55 1011.51 1010.43 1011.23 1012.19 1015.11 1018.39 1016.43 1015.27 1014.75 1014.95 1015.75 1018.03 1015.91 1012.51 1011.83 1011.83 1011.83 1011.91 1011.87 1012.03 1012.19 1012.55 1012.75 1012.99 1013.03 1012.95 1012.67 1012.63 1012.51 1012.63 1012.47 1012.31 1012.19 1011.99 1011.87 1011.75 1011.67 1011.75 1011.63 1011.47 1011.43 1011.35 1011.35 1011.35 1011.59 1011.91 1012.15 1011.71 1012.03 1012.15 1011.95 1012.07 1012.27 1012.63 1012.95
1011.11 1010.67 1010.35 1010.47 1010.59 1010.75 1011.59 1010.99 1010.51 1011.31 1012.43 1011.83 1013.07 1013.67 1013.63 1015.11 1015.23 1016.99 1016.63 1018.15 1015.19 1013.23 1012.15 1011.75 1012.03 1012.23 1011.95 1012.11 1011.99 1012.47 1012.47 1012.83 1013.11 1013.19 1013.03 1012.95 1012.83 1012.51 1012.31 1012.19 1012.19 1012.11 1012.07 1011.91 1011.91 1011.95 1011.95 1011.79 1011.67 1011.63 1011.51 1011.47 1011.47 1011.63 1011.79 1011.83 1012.03 1011.99 1012.07 1012.19 1012.27 1012.59 1012.87
1013.79 1013.07 1012.03 1011.87 1010.99 1011.11 1011.63 1011.43 1010.99 1010.83 1010.87 1011.27 1011.79 1012.59 1012.95 1016.03 1014.47 1015.11 1016.23 1018.47 1015.43 1013.91 1012.23 1012.31 1012.27 1012.63 1012.59 1012.47 1012.15 1012.27 1012.83 1012.95 1012.95 1013.03 1012.95 1012.87 1012.79 1012.63 1012.47 1012.51 1012.51 1012.31 1012.19 1012.03 1012.23 1012.23 1012.19 1011.99 1011.83 1011.67 1011.63 1011.71 1011.75 1011.71 1011.71 1011.91 1011.99 1012.03 1012.11 1012.11 1012.39 1012.55 1012.79
1018.23 1018.35 1017.59 1016.35 1014.87 1013.03 1010.95 1010.91 1012.19 1011.91 1011.95 1012.71 1013.75 1015.55 1014.91 1017.47 1014.71 1014.99 1016.31 1015.63 1013.03 1013.19 1012.55 1012.67 1012.51 1012.63 1012.87 1012.39 1012.15 1012.43 1012.67 1012.95 1013.03 1012.79 1012.91 1012.95 1012.87 1012.91 1012.79 1012.75 1012.63 1012.75 1012.63 1012.47 1012.39 1012.35 1012.23 1012.19 1012.11 1012.03 1011.95 1011.79 1011.71 1011.75 1011.79 1011.71 1012.03 1012.07 1012.11 1012.07 1012.31 1012.63 1012.75
1014.31 1013.79 1013.35 1011.63 1010.27 1010.87 1013.03 1012.31 1012.31 1012.27 1011.55 1011.35 1012.31 1012.99 1014.67 1016.03 1014.71 1015.79 1014.43 1014.47 1013.95 1013.59 1013.27 1013.15 1012.99 1012.79 1012.95 1012.99 1012.71 1012.87 1012.91 1012.79 1012.75 1012.95 1013.07 1013.03 1013.11 1013.15 1013.15 1012.99 1012.71 1012.51 1012.59 1012.75 1012.71 1012.51 1012.35 1012.23 1012.19 1012.15 1012.15 1012.11 1011.95 1011.87 1011.87 1011.71 1011.67 1011.87 1012.03 1012.19 1012.31 1012.51 1012.67
1011.19 1010.75 1011.55 1010.59 1010.87 1011.99 1011.35 1011.91 1012.55 1011.79 1012.15 1012.15 1013.11 1014.27 1014.95 1012.79 1014.67 1016.67 1013.07 1013.35 1014.83 1013.31 1012.39 1012.51 1012.43 1012.23 1012.51 1012.19 1012.31 1012.71 1012.67 1012.63 1012.75 1012.99 1013.35 1013.31 1013.11 1013.07 1012.95 1012.91 1012.99 1012.99 1012.83 1012.79 1012.79 1012.71 1012.59 1012.47 1012.31 1012.15 1012.03 1012.03 1012.07 1012.07 1012.11 1011.83 1011.71 1011.71 1011.67 1011.91 1012.19 1012.35 1012.39
1010.99 1010.91 1010.95 1010.83 1011.11 1011.27 1011.07 1011.31 1011.43 1012.31 1012.19 1012.59 1013.55 1013.35 1012.39 1013.39 1014.83 1015.47 1014.15 1013.59 1014.47 1012.99 1011.83 1011.51 1011.75 1011.63 1011.99 1011.87 1012.07 1012.11 1012.35 1012.67 1013.07 1013.27 1013.35 1013.35 1013.35 1013.27 1013.19 1013.11 1013.07 1013.15 1013.19 1013.15 1013.07 1012.95 1012.83 1012.75 1012.63 1012.39 1012.23 1012.03 1011.87 1011.83 1011.79 1011.83 1011.83 1011.83 1011.71 1011.83 1011.99 1012.11 1012.27
1011.47 1011.47 1011.39 1011.15 1011.51 1011.63 1011.71 1011.43 1011.35 1011.39 1011.87 1012.35 1012.31 1012.31 1011.99 1012.79 1013.51 1012.99 1012.91 1013.51 1013.47 1011.75 1011.43 1011.39 1011.75 1011.43 1011.47 1012.07 1012.19 1012.55 1012.83 1013.07 1013.31 1013.27 1013.27 1013.35 1013.39 1013.31 1013.23 1013.15 1012.99 1013.07 1013.23 1013.19 1013.11 1013.03 1013.07 1013.07 1012.95 1012.75 1012.47 1012.27 1012.15 1012.07 1011.87 1011.71 1011.83 1011.79 1011.79 1011.91 1011.99 1011.95 1011.99
1012.03 1011.51 1011.39 1011.47 1011.43 1011.63 1012.51 1011.51 1011.11 1011.23 1011.35 1011.59 1011.59 1011.75 1011.63 1012.31 1012.75 1012.63 1013.03 1013.71 1013.83 1011.23 1010.83 1011.75 1012.15 1011.87 1011.71 1012.03 1012.47 1012.67 1012.95 1013.15 1013.15 1013.23 1013.31 1013.39 1013.35 1013.19 1013.03 1012.99 1012.95 1012.99 1013.03 1012.95 1012.91 1012.95 1013.03 1013.03 1012.95 1012.83 1012.67 1012.43 1012.23 1012.03 1011.91 1011.87 1011.83 1011.55 1011.55 1011.87 1011.87 1011.83 1011.91
1012.87 1011.87 1012.03 1011.75 1011.51 1011.67 1012.03 1011.91 1011.71 1011.99 1012.23 1013.03 1012.15 1013.07 1011.63 1012.87 1013.59 1013.03 1013.11 1014.23 1013.79 1011.67 1011.43 1011.87 1012.15 1012.27 1012.19 1012.31 1012.47 1012.83 1013.11 1012.95 1013.07 1013.27 1013.15 1013.19 1013.23 1013.15 1013.07 1012.99 1012.95 1012.95 1013.03 1013.03 1012.95 1012.95 1012.95 1012.91 1012.83 1012.79 1012.71 1012.51 1012.43 1012.35 1012.07 1011.91 1011.67 1011.47 1011.51 1011.59 1011.67 1011.63 1011.51
1012.99 1011.55 1011.43 1011.99 1012.23 1012.83 1013.79 1013.15 1011.59 1011.23 1011.23 1011.11 1010.59 1010.55 1010.99 1011.55 1011.47 1013.11 1014.23 1013.63 1010.79 1011.43 1011.39 1012.11 1012.43 1012.15 1011.91 1011.95 1012.11 1012.47 1012.75 1012.83 1012.91 1013.15 1013.15 1013.11 1013.11 1013.07 1013.03 1013.07 1013.23 1013.19 1013.15 1013.03 1012.99 1012.87 1012.79 1012.71 1012.71 1012.63 1012.63 1012.71 1012.63 1012.47 1012.43 1012.19 1011.87 1011.71 1011.63 1011.63 1011.63 1011.55 1011.39
1012.99 1012.31 1012.15 1012.03 1013.95 1016.59 1015.03 1010.27 1009.03 1009.47 1010.79 1010.95 1012.15 1011.95 1011.27 1010.79 1011.31 1011.67 1010.87 1011.47 1011.59 1011.35 1011.55 1011.59 1012.35 1012.15 1012.15 1011.79 1011.83 1011.67 1012.03 1012.63 1013.07 1012.99 1012.99 1012.95 1012.83 1012.79 1012.71 1012.59 1012.83 1012.91 1012.83 1012.75 1012.67 1012.71 1012.71 1012.67 1012.63 1012.63 1012.71 1012.83 1012.63 1012.47 1012.47 1012.27 1012.19 1012.07 1011.91 1011.63 1011.59 1011.55 1011.35
1013.27 1012.51 1013.07 1015.11 1016.91 1015.35 1011.35 1009.63 1009.63 1009.51 1009.59 1009.95 1010.91 1010.71 1010.39 1010.47 1010.87 1011.15 1011.71 1011.59 1011.55 1011.35 1010.87 1011.03 1011.31 1011.39 1011.63 1011.63 1011.91 1012.31 1012.39 1012.43 1012.55 1012.95 1012.99 1012.99 1012.95 1012.99 1012.79 1012.59 1012.71 1012.95 1013.11 1013.03 1012.91 1012.91 1012.91 1012.95 1012.79 1012.63 1012.59 1012.51 1012.47 1012.51 1012.39 1012.35 1012.19 1012.15 1012.11 1012.07 1011.71 1011.39 1011.27
1011.59 1013.55 1014.59 1017.39 1015.55 1011.47 1010.43 1010.39 1010.07 1009.99 1010.07 1010.23 1011.03 1011.83 1010.63 1010.15 1010.23 1010.91 1011.75 1011.03 1011.27 1011.47 1011.67 1011.43 1011.31 1011.79 1012.07 1012.07 1012.11 1012.19 1012.35 1012.59 1012.67 1012.91 1012.95 1012.99 1012.99 1012.95 1012.67 1012.91 1013.07 1013.11 1013.15 1013.19 1013.15 1013.23 1012.99 1012.91 1012.83 1012.75 1012.71 1012.47 1012.55 1012.55 1012.31 1012.31 1012.11 1011.99 1011.99 1011.91 1011.75 1011.47 1011.23
1014.63 1013.71 1013.67 1013.67 1011.39 1012.07 1011.51 1011.79 1011.39 1010.87 1011.55 1011.35 1011.99 1013.43 1011.27 1009.23 1009.67 1010.35 1010.87 1011.27 1011.55 1011.75 1011.75 1011.83 1012.03 1012.11 1012.23 1012.47 1012.23 1011.91 1012.27 1012.67 1012.59 1012.71 1012.75 1012.75 1012.75 1012.71 1012.67 1012.71 1012.87 1012.75 1012.75 1013.03 1013.03 1013.03 1012.95 1012.87 1012.79 1012.67 1012.51 1012.51 1012.47 1012.39 1012.35 1012.15 1012.07 1011.95 1011.79 1011.79 1011.55 1011.27 1011.19
1011.83 1013.31 1014.31 1013.75 1014.27 1015.99 1013.03 1010.19 1008.59 1008.07 1008.11 1008.43 1008.79 1010.63 1011.51 1009.31 1009.03 1009.27 1010.15 1011.27 1011.51 1011.83 1011.87 1012.07 1012.11 1012.31 1012.75 1013.35 1012.03 1011.95 1012.11 1012.31 1012.71 1012.59 1012.47 1012.39 1012.39 1012.43 1012.51 1012.55 1012.59 1012.59 1012.75 1012.91 1012.91 1012.91 1012.83 1012.75 1012.55 1012.43 1012.35 1012.35 1012.31 1012.27 1012.15 1011.99 1011.95 1011.91 1011.83 1011.63 1011.23 1011.07 1010.87
1012.59 1013.15 1014.43 1014.51 1015.39 1013.63 1010.23 1009.27 1008.63 1008.23 1008.15 1008.67 1008.87 1011.43 1012.51 1009.55 1008.83 1009.11 1009.55 1010.59 1010.95 1011.27 1011.75 1012.15 1012.23 1012.75 1013.59 1012.39 1011.27 1011.91 1011.99 1012.39 1012.47 1012.59 1012.43 1012.27 1012.31 1012.47 1012.55 1012.71 1012.95 1012.95 1012.99 1013.03 1012.95 1012.75 1012.67 1012.79 1012.47 1012.35 1012.27 1012.19 1012.19 1012.23 1012.03 1011.87 1011.71 1011.75 1011.63 1011.39 1011.11 1010.95 1010.63
1011.67 1012.87 1014.03 1014.23 1012.11 1012.35 1009.87 1009.07 1008.59 1008.47 1008.19 1008.47 1010.43 1015.27 1013.67 1009.51 1008.43 1008.67 1009.15 1010.11 1010.71 1010.91 1011.03 1011.59 1012.07 1012.23 1012.83 1011.79 1012.07 1011.39 1011.63 1011.91 1012.15 1012.27 1012.43 1012.35 1012.43 1012.35 1012.27 1012.27 1012.63 1012.91 1012.87 1012.87 1012.87 1012.87 1012.79 1012.67 1012.43 1012.35 1012.23 1012.15 1012.19 1012.15 1011.91 1011.63 1011.55 1011.35 1011.11 1010.83 1010.63 1010.47 1010.35
1011.47 1012.79 1012.79 1011.91 1010.87 1009.19 1009.15 1008.95 1008.35 1008.31 1008.15 1009.75 1013.75 1015.63 1011.91 1009.07 1008.15 1008.31 1008.63 1009.31 1009.91 1010.35 1011.23 1011.23 1011.95 1010.87 1010.99 1011.27 1011.07 1010.99 1011.39 1011.87 1012.11 1012.07 1012.11 1012.19 1012.35 1012.47 1012.47 1012.63 1012.91 1012.79 1012.79 1012.87 1013.03 1012.91 1012.71 1012.51 1012.35 1012.23 1012.15 1012.23 1012.19 1011.99 1011.79 1011.59 1011.35 1010.91 1010.55 1010.35 1010.23 1010.19 1010.19
1011.75 1011.67 1012.83 1012.19 1010.59 1008.63 1008.31 1008.51 1008.31 1008.47 1010.31 1014.55 1014.23 1010.15 1008.15 1007.95 1008.19 1008.11 1008.11 1008.91 1009.39 1009.95 1010.55 1010.55 1009.91 1010.35 1010.31 1010.31 1010.63 1011.31 1011.51 1011.63 1011.83 1011.87 1011.87 1011.99 1012.11 1012.15 1012.43 1012.71 1012.75 1012.87 1012.91 1012.91 1012.87 1012.75 1012.55 1012.39 1012.23 1012.11 1012.15 1012.31 1012.11 1011.87 1011.67 1011.51 1011.07 1010.63 1010.47 1010.35 1010.19 1010.03 1009.91
1010.75 1010.95 1012.15 1012.95 1014.83 1009.83 1007.75 1009.27 1009.79 1009.55 1011.55 1009.91 1008.35 1008.39 1008.07 1007.19 1007.59 1008.11 1008.35 1008.55 1009.31 1009.43 1010.19 1009.75 1010.15 1010.31 1010.47 1010.79 1011.15 1011.39 1011.47 1011.71 1011.99 1012.03 1012.11 1012.39 1012.63 1012.87 1012.79 1012.67 1012.55 1012.71 1012.87 1012.87 1012.83 1012.71 1012.39 1012.23 1012.15 1012.07 1012.19 1012.27 1012.07 1011.79 1011.67 1011.23 1010.79 1010.59 1010.39 1010.27 1010.03 1009.79 1009.55
1011.39 1012.71 1014.15 1013.27 1009.83 1008.19 1007.59 1008.23 1010.39 1009.47 1008.23 1007.51 1007.35 1007.83 1008.71 1007.71 1007.39 1008.11 1008.51 1008.67 1008.99 1009.03 1009.35 1009.95 1010.35 1010.39 1010.95 1011.23 1011.39 1011.59 1011.71 1011.83 1012.03 1012.07 1012.23 1012.43 1012.67 1012.71 1012.39 1012.23 1012.47 1012.75 1012.91 1012.91 1012.83 1012.51 1012.27 1012.11 1012.03 1012.07 1012.11 1012.23 1012.03 1011.91 1011.59 1011.03 1010.87 1010.63 1010.39 1010.11 1009.87 1009.63 1009.31
1010.83 1011.31 1010.07 1010.03 1009.15 1008.27 1007.51 1007.23 1008.47 1007.67 1007.03 1006.99 1007.11 1006.71 1007.07 1008.07 1007.91 1007.43 1008.23 1009.07 1009.07 1008.95 1009.23 1009.83 1010.31 1010.91 1010.79 1011.23 1011.31 1011.79 1011.91 1011.95 1012.03 1012.19 1012.35 1012.63 1012.83 1012.67 1012.79 1012.71 1012.79 1012.87 1012.99 1013.11 1012.79 1012.51 1012.23 1012.19 1012.07 1012.07 1011.99 1012.07 1011.95 1011.75 1011.27 1010.95 1010.83 1010.59 1010.27 1010.03 1009.91 1009.67 1009.31
1009.07 1008.43 1008.51 1008.35 1008.27 1008.51 1007.91 1006.91 1007.67 1008.19 1007.47 1006.71 1006.87 1006.79 1007.19 1007.23 1007.55 1007.51 1008.15 1008.63 1008.83 1009.15 1009.23 1009.99 1010.47 1010.51 1010.91 1011.47 1011.63 1011.79 1011.91 1011.99 1012.03 1012.35 1012.67 1012.75 1012.63 1012.39 1012.27 1012.63 1012.91 1012.91 1012.71 1012.67 1012.63 1012.67 1012.47 1012.23 1012.07 1011.87 1011.79 1011.75 1011.91 1011.63 1011.11 1010.83 1010.63 1010.51 1010.31 1010.07 1009.99 1009.83 1009.59
1010.91 1012.39 1009.51 1009.11 1009.07 1008.75 1008.55 1008.15 1007.63 1007.79 1007.87 1007.67 1007.23 1007.15 1006.99 1007.43 1007.43 1007.67 1007.75 1008.23 1008.83 1009.19 1009.47 1009.95 1010.35 1010.75 1011.03 1011.47 1011.67 1011.87 1011.99 1012.15 1012.23 1012.43 1012.71 1012.79 1012.95 1013.11 1013.11 1013.15 1013.11 1012.79 1012.71 1012.63 1012.75 1012.79 1012.75 1012.39 1012.11 1011.71 1011.67 1011.59 1011.55 1011.35 1011.15 1010.83 1010.67 1010.63 1010.55 1010.43 1010.35 1010.27 1010.15
1010.99 1010.75 1009.39 1009.07 1008.27 1008.31 1008.39 1008.15 1008.15 1008.31 1007.95 1007.95 1007.83 1007.47 1006.95 1007.23 1007.43 1007.79 1008.19 1008.31 1008.99 1009.11 1009.75 1009.87 1010.27 1010.83 1011.03 1011.43 1011.91 1011.99 1012.15 1012.19 1012.31 1012.59 1012.75 1012.91 1013.03 1013.03 1013.07 1013.03 1013.03 1012.87 1012.95 1013.07 1013.07 1012.99 1012.87 1012.63 1012.23 1011.83 1011.67 1011.67 1011.59 1011.39 1011.19 1011.07 1011.03 1010.99 1010.99 1010.87 1010.83 1010.83 1010.79
1009.31 1008.91 1008.87 1008.87 1008.67 1008.31 1007.87 1008.07 1007.83 1007.59 1007.79 1007.87 1008.03 1007.71 1007.47 1007.63 1008.19 1008.55 1008.55 1008.47 1008.83 1009.19 1009.47 1009.71 1010.19 1010.95 1011.19 1011.23 1011.51 1011.75 1011.91 1012.23 1012.35 1012.55 1012.71 1012.87 1012.95 1012.99 1012.99 1013.07 1013.03 1013.07 1013.15 1013.11 1013.11 1013.03 1012.95 1012.59 1012.19 1011.99 1011.91 1011.75 1011.59 1011.47 1011.43 1011.39 1011.35 1011.35 1011.39 1011.35 1011.27 1011.23 1011.19
1012.07 1011.35 1010.63 1010.35 1011.27 1011.19 1009.83 1008.79 1008.19 1008.11 1008.19 1008.15 1008.19 1008.07 1007.91 1007.99 1008.51 1008.75 1009.15 1009.27 1009.03 1009.11 1009.43 1009.83 1010.23 1010.91 1011.27 1011.27 1011.43 1011.75 1011.83 1012.07 1012.39 1012.67 1012.79 1012.71 1012.87 1013.03 1012.95 1012.91 1012.95 1013.07 1013.03 1013.15 1013.19 1013.19 1012.99 1012.51 1012.19 1012.07 1011.95 1011.83 1011.67 1011.55 1011.47 1011.39 1011.43 1011.55 1011.51 1011.51 1011.55 1011.63 1011.63
1010.87 1010.55 1010.19 1010.07 1010.35 1009.95 1009.39 1008.95 1008.59 1008.07 1007.87 1007.99 1008.39 1008.39 1008.27 1008.19 1008.31 1008.59 1009.07 1009.71 1009.91 1009.95 1009.91 1009.67 1010.07 1010.67 1011.07 1011.31 1011.31 1011.63 1011.79 1011.99 1012.27 1012.55 1012.67 1012.83 1012.95 1012.99 1013.03 1013.19 1013.23 1013.15 1013.19 1013.23 1013.23 1013.27 1013.07 1012.51 1012.23 1012.03 1011.95 1011.87 1011.79 1011.71 1011.59 1011.55 1011.55 1011.63 1011.59 1011.71 1011.87 1012.03 1012.15
1009.31 1009.19 1009.63 1009.63 1010.19 1010.71 1009.79 1008.95 1008.75 1008.51 1008.07 1008.03 1008.11 1007.95 1007.87 1007.99 1008.27 1008.47 1008.83 1009.03 1009.63 1010.07 1010.15 1010.15 1009.95 1010.39 1010.87 1010.99 1011.11 1011.47 1011.67 1011.99 1012.43 1012.55 1012.59 1012.55 1012.51 1012.63 1012.75 1013.03 1013.19 1013.27 1013.39 1013.47 1013.59 1013.43 1013.03 1012.59 1012.35 1012.15 1012.07 1012.03 1011.99 1011.79 1011.71 1011.67 1011.67 1011.79 1011.91 1012.11 1012.35 1012.51 1012.59
1009.67 1009.11 1009.15 1009.55 1009.83 1009.63 1009.15 1008.95 1008.63 1008.43 1008.31 1008.15 1008.07 1007.99 1007.99 1008.11 1008.23 1008.19 1008.71 1008.95 1008.99 1009.55 1010.11 1010.43 1010.43 1010.35 1010.71 1010.87 1010.91 1011.31 1011.75 1012.11 1012.23 1012.55 1012.87 1012.83 1012.67 1012.71 1012.71 1012.79 1013.03 1013.15 1013.19 1013.43 1013.71 1013.51 1013.07 1012.75 1012.55 1012.43 1012.39 1012.31 1012.19 1012.07 1011.83 1011.71 1011.79 1012.03 1012.19 1012.27 1012.51 1012.79 1012.99
Wind_Speed
5 6 5 6 4 6 7 6 9 1 5 5 4 5 3 6 5 4 2 6 6 0 8 5 4 4 4 4 3 2 3 3 2 3 2 0 0 2 5 8 9 11 12 13 12 12 11 11 11 13 12 12 14 13 13 14 14 13 14 14 14 13 12
3 0 4 3 5 4 5 8 4 5 2 7 5 4 2 5 6 1 5 4 3 2 0 0 4 5 4 4 2 4 2 0 2 4 3 3 1 1 3 5 7 9 10 12 12 12 11 11 11 12 13 12 12 12 12 14 14 15 15 15 15 14 13
7 5 7 7 4 4 7 6 6 6 3 6 3 5 3 5 2 4 1 3 4 4 2 5 5 5 4 3 2 2 3 2 2 3 5 4 3 1 0 3 5 7 8 9 10 11 10 11 13 13 12 12 11 12 13 13 14 16 16 13 14 13 14
7 7 8 7 7 7 3 3 6 1 6 1 4 2 5 5 4 4 3 4 3 3 5 6 4 0 1 3 2 2 3 3 1 4 4 4 4 4 3 1 2 4 7 8 10 11 11 12 12 12 12 12 12 11 11 12 13 13 14 14 13 14 14
6 8 8 7 9 7 7 8 5 5 2 2 5 2 5 5 6 4 6 6 3 6 5 3 1 1 2 2 2 2 2 3 4 4 5 4 5 4 3 3 1 2 4 6 8 8 10 10 11 10 10 11 11 9 12 15 14 14 14 13 13 12 12
9 3 3 7 6 2 6 6 6 5 5 5 6 4 4 4 5 3 7 5 3 6 3 0 1 2 3 2 2 1 3 3 4 4 5 5 5 5 4 3 1 2 1 3 6 8 9 10 11 11 11 11 11 11 11 14 13 13 14 13 12 11 11
1 8 4 3 4 3 5 6 5 3 5 4 5 5 3 4 3 4 4 8 2 5 5 1 2 3 2 3 2 1 4 3 4 4 4 5 4 5 4 4 3 1 1 3 4 7 8 9 10 11 11 11 10 12 13 11 11 12 12 12 11 11 11
2 4 4 3 2 4 7 7 5 5 8 5 7 5 3 6 3 5 3 7 2 6 5 3 4 3 2 3 3 1 3 3 4 3 3 4 4 4 3 3 3 2 1 1 3 5 6 7 8 9 9 10 9 9 10 10 11 11 11 10 10 11 11
5 5 5 6 5 6 8 6 5 7 5 4 3 3 0 8 6 5 6 7 3 6 5 4 4 5 4 3 3 1 1 3 2 2 2 2 2 3 3 4 4 3 2 2 2 4 5 6 7 7 9 9 9 9 9 10 10 10 10 10 10 10 11
8 7 7 7 8 10 6 2 3 6 9 8 6 8 5 6 3 5 6 7 6 7 6 5 5 5 4 2 2 2 1 1 1 1 2 1 2 3 4 4 4 4 4 3 3 3 4 5 5 6 6 8 9 9 9 9 9 9 9 9 10 10 10
6 3 2 3 3 3 8 8 10 9 9 8 9 6 6 7 3 6 6 8 3 4 7 5 5 5 5 5 5 4 4 3 3 2 1 1 2 3 4 4 3 3 3 4 4 4 4 4 5 5 6 7 8 8 9 10 9 9 9 9 10 11 11
8 2 2 1 4 8 7 6 8 9 10 9 10 8 6 2 3 8 4 4 7 3 3 5 5 5 5 4 4 5 4 3 1 2 2 1 1 2 2 2 4 4 3 4 4 3 4 4 4 5 6 7 7 8 8 7 7 8 8 10 11 12 12
4 2 2 3 6 8 7 8 7 10 10 11 12 11 8 5 8 7 4 4 7 6 2 3 3 4 5 5 5 2 3 2 2 2 2 2 1 1 1 2 2 3 4 4 4 5 5 5 6 4 4 5 6 8 8 7 6 8 8 9 10 12 12
7 5 5 5 7 5 7 8 8 9 10 11 11 11 8 8 9 8 5 5 8 7 2 2 5 3 4 5 5 4 4 3 1 1 1 2 2 1 1 1 1 2 3 3 4 4 4 4 4 5 5 4 4 6 7 8 9 8 8 9 10 11 11
7 7 6 6 7 6 8 8 8 8 8 10 10 10 6 6 9 8 8 7 9 2 4 5 5 4 5 6 7 6 4 3 3 2 2 2 2 2 1 0 1 2 3 3 4 4 5 5 5 4 4 4 5 5 5 6 7 9 9 10 11 11 11
8 8 9 8 7 7 9 9 10 10 10 11 9 9 8 9 8 9 9 8 9 6 7 7 7 6 7 8 7 6 5 4 3 3 2 2 2 1 1 1 2 3 4 4 5 5 5 5 5 5 4 4 4 4 5 5 6 6 8 9 11 12 12
9 9 9 8 8 8 9 11 11 11 11 11 8 7 4 9 8 10 8 10 3 7 7 8 8 8 8 6 7 6 5 4 3 3 2 1 1 1 0 1 2 3 4 4 5 6 5 5 5 5 5 6 5 5 5 6 7 6 8 9 9 10 12
7 6 8 6 7 10 8 1 3 8 11 10 11 10 10 9 8 8 6 1 6 6 6 7 9 9 8 6 4 2 2 4 4 3 3 2 1 1 1 2 2 3 5 5 5 6 6 6 6 5 5 5 6 6 6 6 6 7 7 8 9 10 11
9 6 5 8 12 10 3 3 4 1 3 4 9 9 7 4 7 9 7 4 3 5 4 4 7 6 6 4 5 4 2 1 1 3 3 1 1 2 2 3 4 4 5 6 6 6 6 6 7 7 6 5 5 6 6 6 6 7 7 8 8 10 11
3 5 8 11 11 1 5 5 5 3 1 4 5 8 8 8 8 8 8 5 4 5 6 5 6 6 5 3 3 3 4 3 3 3 2 0 1 2 3 4 4 4 5 6 6 6 6 7 6 6 7 6 6 6 6 7 7 7 7 8 9 9 10
10 9 11 12 2 4 6 3 6 7 7 8 8 6 5 8 8 8 7 6 6 7 7 7 6 6 4 5 5 6 5 6 4 3 1 0 2 3 3 3 4 5 5 5 6 7 6 7 7 6 6 6 7 7 7 7 7 7 8 9 10 11 10
10 11 10 10 9 11 9 10 5 10 8 6 6 8 5 5 7 9 9 9 10 9 8 8 7 5 5 5 5 8 8 6 6 3 2 1 1 2 3 4 5 5 5 5 6 6 7 7 6 6 6 6 7 7 7 7 7 8 8 9 10 10 11
9 11 12 11 12 10 8 7 6 7 5 5 2 7 8 8 8 10 10 10 11 10 10 9 7 6 5 6 3 8 8 7 5 4 2 1 1 2 3 4 5 6 6 6 7 6 6 7 6 7 7 7 7 7 7 7 7 8 9 9 10 10 10
11 11 12 12 8 9 6 7 9 8 6 5 5 8 6 8 11 11 11 11 11 10 10 9 8 6 5 4 6 7 8 6 6 3 2 0 1 1 3 4 5 6 5 6 6 6 7 7 7 7 7 7 7 7 7 7 8 8 9 9 9 10 10
12 12 11 10 10 4 7 7 9 8 7 7 9 9 1 7 9 11 11 11 11 11 11 9 6 4 3 6 7 7 7 6 5 3 2 0 1 3 4 5 6 6 6 5 6 7 7 7 7 7 6 7 7 7 7 7 8 8 8 8 9 8 9
14 13 14 12 10 0 9 7 8 10 8 8 11 0 3 8 9 10 10 10 11 11 10 8 3 5 6 6 7 7 5 4 4 3 3 2 1 2 3 4 5 6 6 6 6 7 7 7 7 7 7 8 8 7 7 7 8 8 9 9 9 9 10
10 11 12 9 10 6 11 12 6 4 10 7 1 5 4 6 9 11 9 8 10 10 9 7 4 6 6 5 6 5 4 4 3 2 1 2 2 3 4 4 5 6 6 6 7 7 7 7 7 7 8 8 8 8 8 8 8 9 9 9 9 9 10
9 6 8 5 4 2 14 15 9 11 7 4 5 6 5 5 7 8 7 7 9 8 7 7 6 5 6 5 5 5 4 4 3 2 1 0 1 3 4 4 4 6 6 6 7 6 6 7 7 7 7 8 8 9 9 9 9 9 10 9 9 9 9
6 4 1 6 2 2 9 7 7 2 9 2 1 3 6 8 7 7 6 8 8 6 7 6 6 6 4 4 5 4 4 4 3 1 0 1 2 3 3 4 5 5 5 6 7 7 7 8 7 7 7 8 9 10 10 9 9 9 9 9 8 8 8
4 7 7 4 2 1 6 7 2 4 2 2 0 2 6 6 7 6 6 8 8 7 6 6 6 4 5 5 5 5 4 3 3 1 1 1 2 3 3 3 4 5 5 5 5 7 7 7 7 6 6 7 9 9 9 9 9 8 8 7 7 6 6
4 1 3 2 4 4 3 8 4 0 1 1 1 1 5 7 8 7 7 8 9 8 7 6 5 5 6 6 5 5 4 3 3 3 1 1 2 3 3 3 4 4 5 5 6 7 7 7 7 7 7 7 7 8 9 9 8 7 6 6 6 6 6
6 4 2 8 8 4 3 5 6 4 4 2 1 2 5 8 8 7 7 8 8 7 7 6 5 6 6 6 6 5 4 3 3 3 2 1 1 1 2 2 3 3 3 5 6 6 6 6 7 7 7 7 7 8 8 8 7 6 6 7 7 8 8
8 8 8 8 9 10 8 5 6 1 1 3 4 3 7 10 9 8 7 5 6 7 5 6 5 7 6 6 6 5 5 4 4 3 2 1 1 1 0 1 2 3 3 5 5 5 6 6 6 6 7 7 6 7 7 7 6 7 8 10 10 10 9
9 7 3 7 3 4 4 6 2 5 2 2 4 4 8 9 9 8 8 7 6 4 5 6 5 6 6 6 6 5 4 4 5 4 3 2 2 2 1 0 2 2 3 4 4 5 5 5 5 6 6 6 6 6 6 6 7 8 8 9 11 10 9
3 5 6 6 5 5 3 6 8 4 3 6 7 7 8 8 9 9 9 9 8 7 6 4 5 6 6 7 6 6 5 4 5 4 3 3 3 3 2 2 1 3 4 3 4 4 5 5 4 5 6 6 6 6 7 7 8 9 9 9 9 9 10
2 3 4 6 6 6 7 10 8 6 3 5 8 8 8 9 9 9 9 9 9 8 6 5 4 6 6 7 7 6 6 6 6 5 4 4 3 2 3 2 2 3 3 4 4 4 4 4 5 5 7 7 7 7 8 9 9 10 10 10 9 9 10
2 3 3 5 6 7 6 6 6 6 3 6 7 9 9 10 9 9 9 8 7 8 7 7 6 5 6 6 6 6 6 7 6 5 6 4 2 1 2 1 3 2 3 4 3 4 3 4 5 6 7 7 7 7 8 9 10 11 11 11 12 11 11
Wind_Direction
202 211 197 216 241 255 147 199 216 250 21 278 296 214 314 277 260 277 89 231 223 171 207 200 193 186 144 182 155 108 62 55 77 76 83 93 236 206 216 217 218 214 210 206 206 203 202 202 190 195 190 191 193 193 192 189 193 195 195 196 203 207 207
149 259 228 190 212 303 165 219 146 87 37 316 287 307 162 243 279 121 262 308 290 209 123 202 208 232 199 179 176 108 94 311 72 65 57 54 39 207 220 230 225 219 212 206 205 204 203 199 197 195 191 190 193 193 196 194 193 196 198 195 200 202 205
128 179 194 176 192 246 285 1 114 216 173 206 166 266 264 283 232 313 149 347 278 322 5 166 179 236 203 196 117 187 136 82 37 83 77 57 42 49 171 221 223 223 213 208 207 204 195 201 196 184 183 191 195 199 198 204 203 200 203 199 197 199 202
144 190 206 198 170 174 241 189 203 156 243 285 227 286 311 282 319 282 113 235 0 127 13 4 4 313 210 160 168 80 42 79 30 32 46 52 35 27 10 16 226 224 219 213 206 200 193 186 182 186 191 196 200 203 213 207 205 207 208 211 202 203 202
166 206 200 232 182 186 179 210 204 182 288 28 292 200 277 310 320 322 333 315 82 66 22 359 21 117 135 125 123 96 58 41 50 35 34 39 38 34 30 358 352 233 232 212 202 190 190 192 200 207 208 214 206 202 210 213 201 204 209 211 210 208 210
208 187 74 356 344 289 223 222 220 219 205 206 250 229 193 262 273 331 298 317 15 83 54 322 85 120 133 121 86 105 76 76 62 47 34 30 31 35 27 25 8 335 256 221 200 207 213 210 214 213 212 213 210 196 216 219 208 206 211 208 207 210 211
85 69 78 3 317 273 303 276 277 231 246 252 250 286 167 217 239 303 314 298 39 84 111 78 91 115 132 128 146 138 108 85 75 56 43 38 32 28 24 16 17 357 236 226 217 218 222 221 218 217 216 215 211 211 219 212 209 208 211 211 203 205 206
160 132 91 147 182 230 224 220 259 236 252 242 271 282 337 278 153 236 210 261 61 111 115 135 119 134 128 165 169 198 104 98 85 64 43 36 13 27 27 29 29 23 340 261 253 224 222 228 230 226 227 227 220 217 216 218 213 209 204 212 209 205 207
184 182 184 177 168 221 240 238 187 244 271 269 279 293 62 268 263 265 285 287 115 121 136 136 157 163 194 184 157 160 119 108 100 101 65 31 16 17 15 30 27 12 356 301 271 253 246 238 235 234 228 223 223 220 215 213 219 213 216 212 216 211 210
221 217 205 206 197 212 215 209 161 215 226 200 212 235 208 255 229 226 257 261 71 123 142 160 176 166 205 189 137 127 125 98 140 95 83 41 24 28 23 25 23 18 12 347 328 299 266 256 256 249 247 237 222 220 217 216 222 224 224 221 220 218 220
254 259 142 49 306 163 222 191 216 203 221 211 227 272 269 254 186 228 226 265 323 175 155 175 185 181 208 192 183 195 184 177 168 141 106 50 40 33 29 29 29 22 12 359 346 329 308 276 252 256 251 241 239 229 223 217 221 222 219 223 222 216 217
253 329 289 54 247 255 256 237 211 208 208 204 222 230 261 2 273 258 237 175 258 254 134 167 185 175 201 205 172 179 197 171 144 92 97 138 107 63 53 50 34 22 17 10 2 355 338 330 313 273 251 244 238 235 231 231 230 229 224 218 221 221 218
223 251 243 216 235 252 262 248 230 207 202 204 227 233 242 231 256 282 72 192 234 253 236 122 161 178 193 195 182 142 116 111 128 151 156 149 134 116 68 74 43 23 8 7 7 358 2 352 339 323 286 266 251 239 239 236 228 228 233 236 227 225 228
205 191 211 201 237 222 237 235 221 217 210 218 227 234 228 231 244 267 278 233 244 257 145 127 105 129 148 127 120 135 168 153 141 182 189 171 164 179 132 50 22 6 350 343 354 352 355 350 334 332 326 300 272 258 247 241 239 233 227 232 238 239 235
207 186 186 201 227 221 228 221 227 221 223 229 225 249 240 233 251 246 252 251 254 196 119 131 124 135 140 149 165 161 149 165 184 217 203 186 193 180 165 145 325 311 295 306 316 329 337 332 331 323 322 315 308 295 274 262 250 242 234 232 234 233 234
216 191 205 200 212 229 245 235 217 219 225 232 224 234 233 238 245 245 244 240 250 161 140 135 148 161 174 173 165 157 164 176 193 227 233 219 197 208 103 340 323 310 313 314 308 308 320 320 321 325 317 312 296 290 296 278 259 255 246 239 235 235 235
238 190 211 204 211 229 235 233 230 226 227 243 252 246 236 243 263 262 243 251 314 120 152 159 161 177 181 172 175 162 152 172 195 219 251 258 254 236 343 335 314 308 307 307 311 313 311 316 312 321 329 319 318 332 320 321 316 276 248 242 245 242 238
239 158 201 200 224 229 236 2 296 229 238 220 240 244 236 227 218 261 293 64 112 148 170 191 168 181 177 174 141 92 142 170 189 216 236 260 279 298 295 322 310 317 310 314 321 321 319 325 330 332 322 301 296 301 306 310 298 303 294 259 246 244 240
246 175 173 217 230 237 86 123 89 72 258 240 241 257 264 245 216 238 231 202 177 161 199 168 159 147 129 122 142 155 147 169 188 197 220 249 332 322 321 308 352 344 326 323 316 322 330 330 312 307 302 296 299 294 290 282 279 277 282 298 274 250 244
228 203 222 233 229 97 124 113 105 99 214 229 250 255 246 242 231 207 221 190 153 151 138 126 130 136 136 141 176 176 162 187 198 200 199 182 329 323 339 342 330 331 333 326 327 333 326 310 309 309 306 307 297 288 287 280 277 268 269 268 267 267 252
241 226 224 234 11 212 182 158 189 184 198 198 215 248 215 200 198 192 190 158 152 156 150 144 133 133 156 199 187 185 186 183 200 202 198 326 335 327 331 333 327 333 334 333 322 316 310 306 304 302 302 299 290 287 282 279 274 271 262 256 254 253 256
229 241 239 238 236 247 220 219 221 205 222 238 224 257 241 179 190 183 181 174 162 166 159 155 147 157 195 228 200 167 176 178 184 180 228 206 277 311 350 340 333 329 340 337 320 315 310 308 308 302 301 296 293 287 284 275 269 264 261 258 256 254 252
213 231 240 236 238 238 255 194 187 192 187 218 180 241 258 162 187 177 180 174 169 173 165 157 158 187 238 263 102 141 157 166 172 183 180 156 328 4 332 339 344 343 337 329 317 314 316 310 323 319 309 300 291 287 281 278 269 263 261 261 261 258 258
219 229 231 240 224 249 161 146 192 168 168 154 202 247 263 152 172 173 181 172 172 169 165 162 183 215 265 319 88 124 142 151 154 175 138 99 338 310 329 349 356 327 324 314 318 323 319 325 326 319 315 305 300 292 286 280 272 266 263 261 262 264 265
220 217 241 244 245 158 125 144 143 144 144 180 222 235 32 169 166 176 179 175 168 161 165 176 201 200 69 92 110 115 124 130 140 137 108 85 2 335 336 352 338 324 325 325 324 325 326 325 325 322 315 307 302 299 295 287 281 284 288 288 279 267 252
230 220 233 240 253 260 125 144 152 141 165 212 229 265 123 167 165 173 179 171 162 166 172 187 216 105 111 98 106 117 130 129 121 149 143 147 143 10 2 337 325 332 323 322 322 324 327 325 327 324 321 312 305 303 299 294 299 305 299 294 287 278 267
243 238 238 232 242 148 147 126 140 185 230 242 337 145 167 159 169 165 172 168 159 169 172 177 126 133 127 129 126 119 121 133 134 132 51 18 338 346 318 327 336 329 324 324 329 326 326 331 330 326 322 316 314 313 304 309 311 308 306 300 290 278 271
231 211 234 250 303 103 152 161 203 191 224 42 158 167 147 156 162 163 160 159 157 172 166 153 152 148 141 133 136 132 128 122 127 136 130 186 307 312 314 320 339 331 323 330 326 328 329 335 334 332 328 322 321 316 314 320 313 310 307 307 300 290 279
263 276 284 63 356 151 191 200 23 249 198 11 347 259 154 154 159 157 164 144 156 162 155 157 158 165 165 139 143 144 138 146 146 148 140 4 330 311 325 332 344 326 331 325 325 331 337 338 336 333 328 322 320 322 328 324 320 317 316 315 312 297 295
321 268 268 292 333 27 223 207 86 349 183 184 297 240 161 167 146 166 153 151 151 153 157 164 168 182 149 148 148 143 148 150 123 113 194 226 279 302 311 349 337 326 318 310 322 334 338 341 337 334 333 328 327 330 328 329 327 327 323 325 323 324 319
293 309 21 8 357 0 303 240 210 162 290 6 14 197 147 140 144 139 139 150 153 157 164 177 173 155 146 150 141 143 146 163 169 187 200 52 345 325 333 4 319 323 332 333 343 337 341 348 342 342 344 342 341 338 339 339 343 346 353 2 9 12 17
237 234 323 327 314 285 280 267 215 222 207 188 134 29 120 131 133 128 130 141 154 160 174 180 174 153 152 152 151 155 157 168 180 188 194 183 228 26 342 2 319 324 337 338 339 343 347 347 338 341 354 356 354 354 355 3 6 17 29 32 39 40 45
236 250 267 305 314 288 254 207 231 258 95 167 139 123 134 135 133 125 125 150 155 174 170 166 158 146 146 150 154 157 151 166 187 186 163 174 225 221 194 34 341 6 344 344 345 351 353 342 342 352 1 3 8 12 21 28 38 47 53 58 58 59 60
238 253 13 9 321 313 10 353 334 201 161 187 148 135 148 148 143 143 137 131 134 147 142 154 155 150 146 151 152 159 160 171 166 150 179 194 170 168 107 7 30 20 5 357 357 2 347 344 353 5 6 18 22 30 34 44 52 61 69 71 71 69 69
214 48 22 14 335 285 334 15 357 317 201 185 179 170 162 157 152 153 147 140 138 135 135 149 155 146 152 154 159 164 168 169 154 161 180 161 168 150 136 120 65 27 22 14 12 15 3 343 14 18 29 29 41 49 56 62 63 67 67 70 73 72 70
277 76 20 357 349 332 323 330 341 326 269 227 195 184 173 164 159 161 159 155 151 145 142 145 148 143 148 158 169 169 157 151 151 167 161 167 155 146 142 146 107 69 53 40 37 35 10 7 37 37 39 43 48 61 70 73 76 75 75 77 75 75 77
269 51 355 356 318 317 327 322 327 339 321 254 228 189 173 160 164 164 153 144 148 151 152 149 137 145 151 164 172 161 162 156 163 151 140 148 146 187 153 158 117 102 79 63 42 29 38 46 59 50 51 50 56 65 72 81 82 83 83 86 86 83 82